Location: Bukit Lungun
(2.6833°N, 113.9667°E)
Time: 13:09:31
(UTC+00:00)

ASTEX 1 - Pass Details

Date: 02 March 2021
Orbit: 721 x 742 km, 92.7° (Epoch: 21 April)

Event Time Altitude Azimuth Distance (km) Brightness Sun altitude
Exits shadow 12:09:58 50° 140° (SE) 911 3.6 -23.6°
Drops below altitude 10° 12:13:54 10° 176° (S) 2,213 5.9 -24.6°
Sets 12:16:13 0° 179° (S) 3,138 6.7 -25.1°
